User: anonymous   Login
Location: Unspecified
(0.0000°N, 0.0000°E)
Time: 20:45:29
(UTC+00:00)
Language:

AO-Echo - Orbit

View from above orbital plane
View from above orbital plane
View from above satellite
View from above satellite

Ground track
Ground track

The orbit data is extracted from the following two-line orbital elements,

1 28375U 04025K   19046.81237583 -.00000015  00000-0  92406-5 0  9996
2 28375  98.4034 339.1479 0081339 248.8536 110.3947 14.41914996769523
Epoch (UTC): 15 February 2019 19:29:49
Eccentricity: 0.0081339
inclination: 98.4034°
perigee height: 694 km
apogee height: 810 km
right ascension of ascending node: 339.1479°
argument of perigee: 248.8536°
revolutions per day: 14.41914996
mean anomaly at epoch: 110.3947°
orbit number at epoch: 76952

The dashed part of the orbit path shows where the satellite is in the earth's shadow,  

DLR